sat.trackr.live / text

‹ back to catalog

EDDA-1

NORAD 69017 · 2026-100AP

PAYLOAD ACTIVE UNKNOWN

§ Identity

Operator
Country
US
Launch date
2026-05-03
Launch site
AFWTR
Launch vehicle
Mass (kg)
RCS (m²)

Purposes: earth_obs

External: N2YO · Heavens-Above · Gunter

§ Orbital elements

Epoch: 2026-09-20T03:37:21.770688Z

Period
94.40 min
Inclination
97.3441°
Eccentricity
0.0003349
Mean motion
15.25397813 rev/d
Perigee alt
487.3 km
Apogee alt
491.9 km
Semi-major
6,867.7 km
B*
8.7143e-5
RAAN
159.4860°
Arg perigee
117.3521°
Mean anomaly
242.8059°
Rev number
2,127

§ Raw data

EDDA-11 69017U 26100AP  26263.15094642  .00002129  00000+0  87143-4 0  99922 69017  97.3441 159.4860 0003349 117.3521 242.8059 15.25397813 21271

JSON: /api/v1/satellites/69017 · /tle

For live sub-satellite position, see the globe view (requires WebGL).

§ Visibility from observer

Set your observer location to see the next 7 days of passes ≥ 10°. The values pass through the URL so the page stays shareable.

No JS? Fill the form by hand. The geolocation button needs JavaScript.